Theta_e
290 289 291 293 295 297 298 297 295 295 294 292 292 291 290 288 286 285 284 283 282 282 282 282 282 282 282 281 281 282 281 281
289 289 291 292 293 296 296 295 293 293 292 290 289 289 288 287 285 284 283 282 281 282 281 281 281 281 281 281 281 281 280 280
289 288 289 291 292 294 294 292 292 292 291 290 289 287 286 285 284 283 282 282 281 281 281 281 281 281 281 280 280 280 279 279
287 287 288 289 290 292 292 292 290 289 289 288 287 286 286 284 283 282 282 281 281 281 281 281 280 280 281 280 280 280 279 279
287 286 287 288 289 290 290 291 288 288 287 287 286 286 286 284 283 282 281 280 281 281 281 281 280 280 280 280 280 279 279 279
288 288 286 286 287 289 289 289 288 287 286 286 285 286 285 283 282 281 281 281 281 280 280 280 280 280 280 279 279 278 278 278
291 288 286 286 287 288 288 288 287 287 286 286 284 284 283 282 281 280 280 280 280 279 279 279 279 283 283 280 279 278 278 277
293 291 289 288 288 287 288 287 286 286 286 284 283 283 283 282 281 280 279 279 279 279 279 279 279 284 285 283 279 279 277 277
295 293 291 289 287 288 286 285 284 285 284 283 283 282 282 281 280 280 280 279 279 279 279 279 279 285 285 284 279 278 278 277
294 293 291 288 286 285 284 283 283 284 283 283 283 281 281 280 280 280 279 279 279 279 279 279 279 285 286 285 281 278 278 277
289 289 288 286 284 283 282 282 282 283 283 283 282 281 280 281 280 280 280 280 279 279 279 279 279 285 286 286 283 280 279 278
285 286 285 283 282 281 281 281 281 281 281 281 282 281 281 281 281 280 279 279 279 278 278 279 280 282 287 287 282 281 280 280
282 281 280 280 281 279 279 279 280 280 279 279 280 281 281 280 280 280 280 279 278 278 278 279 279 281 285 287 287 284 281 279
279 278 278 277 279 278 277 278 278 278 278 279 281 281 281 281 280 280 280 279 278 278 278 278 278 279 284 285 287 287 284 280
277 277 275 275 277 277 277 278 279 279 280 281 281 281 282 282 281 281 280 280 279 279 280 280 277 277 277 280 282 283 284 282
276 276 275 276 277 280 282 283 282 282 281 281 282 282 281 281 282 281 282 283 282 281 282 280 275 276 278 277 276 276 276 268
275 276 276 276 276 278 280 281 280 278 279 279 280 279 277 277 275 280 280 283 284 282 280 275 278 280 281 280 279 279 279 268
276 274 273 271 271 271 275 279 278 277 275 275 275 275 275 274 275 274 277 281 281 281 281 279 278 280 281 281 280 279 279 268
273 271 270 268 266 267 272 274 273 273 273 273 273 273 273 273 273 274 275 275 276 279 278 278 280 280 280 281 275 266 264 261
270 268 268 266 264 265 269 272 272 272 270 269 269 269 269 269 270 270 270 270 268 268 272 272 280 279 276 272 264 262 260 257
Wind_Speed
6 7 6 7 9 11 13 15 15 14 13 11 12 11 10 10 12 11 8 10 12 12 11 10 9 9 9 8 8 9 6 6
6 5 6 5 8 11 12 12 13 14 13 13 11 11 11 11 11 11 11 12 12 12 12 12 11 9 9 9 10 10 9 8
5 5 6 8 9 11 11 12 14 13 12 13 12 13 12 11 12 12 13 12 13 12 12 12 11 10 11 11 9 10 10 9
4 7 8 8 9 10 11 12 12 13 13 13 14 14 14 13 13 13 13 12 12 12 13 13 12 11 9 10 10 9 9 9
7 8 8 9 10 11 11 12 13 14 14 15 15 15 14 14 14 15 15 15 14 13 12 12 11 10 10 9 9 7 6 7
10 9 8 9 10 11 12 13 14 15 15 15 12 12 12 13 13 13 14 14 15 14 12 11 11 9 11 10 9 8 7 5
13 9 10 12 13 12 14 14 14 15 16 13 13 13 13 12 14 14 14 14 14 14 14 13 8 18 19 12 9 8 7 7
11 11 11 14 14 16 13 12 15 15 13 14 14 14 14 14 14 15 16 15 15 14 14 13 11 22 20 18 8 8 7 7
12 10 10 7 10 8 10 13 14 14 14 14 15 15 14 15 16 15 15 16 15 14 14 12 10 22 21 18 8 7 7 7
6 6 6 8 9 11 10 11 12 14 13 14 14 14 13 14 14 12 13 13 13 12 13 12 10 22 21 16 9 6 8 7
7 5 5 5 8 11 11 11 12 11 11 11 12 13 14 13 13 11 11 10 9 9 9 10 9 21 21 16 6 8 7 7
5 6 5 4 6 6 7 9 6 8 9 10 10 12 11 11 9 11 11 10 9 9 8 9 10 13 20 19 9 9 8 8
0 1 2 3 5 6 6 7 9 9 10 10 10 9 10 12 10 11 11 11 9 8 6 6 7 11 17 19 23 16 9 8
4 5 4 4 5 7 4 8 10 10 9 10 10 10 11 12 12 10 9 9 9 8 8 8 7 8 22 19 20 24 12 7
5 6 5 3 4 4 7 9 10 11 11 11 11 11 10 8 9 9 9 8 9 11 11 8 6 7 6 8 9 18 14 10
3 4 6 5 6 5 5 7 9 9 8 9 7 9 9 5 7 7 7 9 9 8 7 7 7 9 12 12 8 6 5 6
5 6 7 7 7 6 5 6 8 8 6 6 6 6 6 7 5 6 6 7 7 7 8 2 5 11 17 17 15 16 16 3
8 8 8 8 7 6 4 5 6 7 6 5 6 6 6 6 6 6 4 8 6 8 10 10 9 10 13 13 12 12 13 3
10 10 8 8 8 7 5 6 6 6 6 5 5 5 5 6 5 5 7 7 5 6 7 9 11 11 12 14 13 4 5 2
11 9 8 7 7 8 6 6 6 5 4 4 4 4 5 5 5 4 5 5 4 2 5 2 13 10 12 9 3 3 3 2
Wind_Direction
224 207 195 188 185 189 194 193 183 179 176 178 177 173 168 166 171 166 152 155 158 153 151 148 145 140 132 129 130 127 122 124
216 209 190 179 180 188 186 182 181 178 172 167 173 173 167 174 171 167 156 158 161 160 153 152 151 148 140 141 142 136 138 141
224 199 189 195 187 192 189 185 181 178 176 177 172 172 171 173 170 164 166 167 160 158 157 155 156 156 153 149 153 150 153 159
229 215 200 205 198 193 192 189 179 176 176 177 178 177 179 175 169 167 162 161 157 159 164 163 164 160 157 157 161 161 162 163
237 233 213 207 203 199 197 189 178 179 182 186 185 182 181 174 170 169 168 164 167 171 168 165 161 161 159 157 160 158 159 169
237 228 215 212 211 206 202 193 180 185 188 192 183 180 176 172 170 167 170 170 167 163 163 162 165 166 163 163 162 161 165 165
233 218 211 213 216 206 204 196 186 190 194 183 176 172 173 171 169 168 170 168 164 169 164 165 170 176 173 160 158 169 158 186
248 226 218 214 206 208 199 180 188 193 187 180 175 176 175 169 169 174 172 166 172 170 164 169 168 176 176 170 158 165 186 187
254 241 229 213 197 188 176 183 187 191 186 179 178 178 174 172 176 175 172 173 171 170 170 166 172 177 176 167 155 169 195 188
259 255 232 203 178 167 170 176 184 193 189 181 176 172 170 175 175 171 168 167 169 168 163 166 168 175 173 166 168 188 212 201
301 278 257 220 159 161 172 173 190 187 181 170 166 166 171 169 167 164 163 160 146 148 161 160 161 178 181 179 165 197 212 206
308 282 279 156 146 156 147 178 152 133 138 150 158 159 160 151 148 146 142 137 144 152 162 169 171 184 194 188 189 206 207 217
21 21 36 103 113 126 144 133 126 130 133 137 138 142 141 141 140 142 140 143 147 154 161 185 183 191 208 204 215 210 217 216
121 97 48 71 116 128 144 128 122 123 126 126 129 136 141 139 141 141 146 151 162 171 186 195 195 203 212 217 221 228 227 215
113 99 66 50 73 117 135 128 129 134 138 137 138 140 141 144 154 152 162 168 176 187 198 193 181 197 196 215 225 238 235 203
54 94 88 75 70 64 100 124 125 127 130 133 138 145 149 140 163 174 182 185 179 193 194 186 201 210 202 198 200 191 170 123
74 77 65 75 75 61 67 108 120 117 122 128 133 127 130 131 104 83 134 167 182 178 172 192 208 209 210 207 206 203 196 104
93 81 69 68 57 21 35 108 113 126 127 117 122 133 138 136 139 132 132 144 175 201 204 196 184 189 187 180 176 185 181 142
80 73 65 59 40 353 12 87 99 103 104 124 128 133 136 144 141 142 152 151 140 134 136 162 164 158 164 171 118 92 61 115
81 68 64 60 28 355 11 69 85 95 93 98 103 102 115 120 126 122 124 135 127 100 86 45 161 149 89 100 102 143 165 153